This demonstration page uses our WeatherBlox Daily Observations layout. Learn more.

38.89511, -77.03637

Hourly Observations for January 28, 2015

Temp ( °F °C ) Dew Point ( °F °C ) Humidity (%) Winds ( mph kmh ) Pressure ( in mb ) Visibility ( mi km ) Precip ( " mm )
12:52 am 00:52 Partly Cloudy 28 -2 14 -10 55 55 NNW 17 28 30 1016 10 16.09344 0 0
1:52 am 01:52 Mostly Cloudy 28 -2 12 -11 51 51 NW 17 28 30.03 1017 10 16.09344 0 0
2:52 am 02:52 Partly Cloudy 27 -3 10 -12 50 50 NNW 20 31 30.06 1018 10 16.09344 0 0
3:52 am 03:52 Mostly Clear 27 -3 10 -12 50 50 NW 12 19 30.09 1019 10 16.09344 0 0
4:52 am 04:52 Clear 25 -4 9 -13 50 50 NNW 14 22 30.12 1020 10 16.09344 0 0
5:52 am 05:52 Clear 25 -4 9 -13 50 50 NNW 15 24 30.15 1021 10 16.09344 0 0
6:52 am 06:52 Mostly Clear 25 -4 9 -13 50 50 NNW 16 26 30.18 1022 10 16.09344 0 0
7:52 am 07:52 Sunny 25 -4 7 -14 46 46 NW 13 20 30.21 1023 10 16.09344 0 0
8:52 am 08:52 Sunny 27 -3 7 -14 43 43 NNW 14 22 30.21 1023 10 16.09344 0 0
9:52 am 09:52 Sunny 28 -2 7 -14 40 40 NW 14 22 30.24 1024 10 16.09344 0 0
10:52 am 10:52 Sunny 32 0 7 -14 34 34 NNW 17 28 30.27 1025 10 16.09344 0 0
11:52 am 11:52 Sunny 34 1 7 -14 32 32 NNW 17 28 30.24 1024 10 16.09344 0 0
12:52 pm 12:52 Sunny 36 2 7 -14 30 30 NNW 15 24 30.24 1024 10 16.09344 0 0
1:52 pm 13:52 Sunny 37 3 7 -14 28 28 NNW 18 30 30.24 1024 10 16.09344 0 0
2:52 pm 14:52 Sunny 37 3 7 -14 28 28 WNW 14 22 30.24 1024 10 16.09344 0 0
3:52 pm 15:52 Sunny 37 3 7 -14 28 28 NNW 10 17 30.24 1024 10 16.09344 0 0
4:52 pm 16:52 Mostly Sunny 37 3 7 -14 28 28 NW 14 22 30.27 1025 10 16.09344 0 0
5:52 pm 17:52 Mostly Clear 36 2 7 -14 30 30 NNW 13 20 30.3 1026 10 16.09344 0 0
6:52 pm 18:52 Clear 34 1 5 -15 29 29 NNW 13 20 30.3 1026 10 16.09344 0 0
7:52 pm 19:52 Clear 34 1 7 -14 32 32 NW 10 17 30.33 1027 10 16.09344 0 0
8:52 pm 20:52 Clear 34 1 7 -14 32 32 NW 9 15 30.33 1027 10 16.09344 0 0
9:52 pm 21:52 Clear 32 0 7 -14 34 34 NNW 9 15 30.33 1027 10 16.09344 0 0
10:52 pm 22:52 Clear 30 -1 7 -14 37 37 NNW 8 13 30.36 1028 10 16.09344 0 0
11:52 pm 23:52 Clear 30 -1 7 -14 37 37 NW 6 9 30.36 1028 10 16.09344 0 0

Powered by AerisWeather